This is the latest recevied weather packets stored in our database for station/object AC8JV. If no packets are shown the sender has not sent any weather packets the latest 10 day(s).
| Time | Temp. | Humidity | Pressure | Rain* | Wind** | Luminosity | Snow |
|---|---|---|---|---|---|---|---|
| 1777603230 | 6.11° C | 67% | 1016.1 hPa | 0 mm | - | - | - |
| 1777602603 | 6.11° C | 68% | 1016.1 hPa | 0 mm | - | - | - |
| 1777602044 | 6.11° C | 68% | 1016 hPa | 0 mm | - | - | - |
| 1777601400 | 6.67° C | 67% | 1016.1 hPa | 0 mm | - | - | - |
| 1777600818 | 6.67° C | 66% | 1016.1 hPa | 0 mm | - | - | - |
| 1777600237 | 6.67° C | 65% | 1016 hPa | 0 mm | - | - | - |
| 1777599607 | 6.67° C | 64% | 1016.1 hPa | 0 mm | - | - | - |
| 1777599010 | 6.67° C | 63% | 1016.1 hPa | 0 mm | - | - | - |
| 1777598407 | 6.67° C | 60% | 1016.2 hPa | 0 mm | - | - | - |
| 1777597810 | 7.22° C | 59% | 1016.1 hPa | 0 mm | - | - | - |
| 1777597202 | 7.22° C | 55% | 1015.9 hPa | 0 mm | - | - | - |
| 1777596603 | 7.22° C | 58% | 1015.9 hPa | 0 mm | - | - | - |
| 1777596008 | 7.22° C | 56% | 1015.8 hPa | 0 mm | - | - | - |
| 1777595408 | 7.22° C | 58% | 1015.8 hPa | 0 mm | - | - | - |
| 1777594799 | 7.22° C | 55% | 1015.8 hPa | 0 mm | - | - | - |
| 1777594237 | 7.22° C | 52% | 1015.7 hPa | 0 mm | - | - | - |
| 1777593601 | 7.78° C | 52% | 1015.7 hPa | 0 mm | - | - | - |
| 1777592999 | 7.78° C | 52% | 1015.8 hPa | 0 mm | - | - | - |
| 1777592410 | 7.78° C | 51% | 1015.8 hPa | 0 mm | - | - | - |
| 1777591814 | 7.78° C | 48% | 1015.9 hPa | 0 mm | - | - | - |
| 1777591281 | 7.78° C | 49% | 1015.9 hPa | 0 mm | - | - | - |
| 1777590629 | 8.33° C | 47% | 1016 hPa | 0 mm | - | - | - |
| 1777590001 | 8.33° C | 47% | 1016.1 hPa | 0 mm | - | - | - |
| 1777589434 | 8.89° C | 50% | 1016.2 hPa | 0 mm | - | - | - |
| 1777588802 | 8.89° C | 51% | 1016.1 hPa | 0 mm | - | - | - |
* Rain latest hour (hover to see other rain measurements)
** Current wind speed in m/s (hover to see current wind gust speed)